Flag for U.S.A. Weather past 2 weeks in Daytona Beach, Florida, U.S.A.

62 °F

Passing clouds.

Feels Like: 62 °F
Forecast: 63 / 79 °F
Wind: No wind

Location: Daytona Beach Regional Airport

Current Time: Oct 4, 2015 at 8:01:46 AM

Latest Report: Oct 4, 2015 at 6:53 AM

Visibility: 10 mi

Pressure: 29.67 "Hg

Humidity: 96%

Dew point: 61 °F

Location of Daytona BeachLocation

Historic Weather in Daytona Beach — Graph


Daytona Beach temperature yesterday

Maximum temperature yesterday: 79 °F (at 2:53 PM)
Minimum temperature yesterday: 66 °F (at 11:53 PM)
Average temperature yesterday: 72 °F

Past Weeks' High & Low Weather Summary

High89 °F (Sep 20, 2:53 PM)100% (Sep 20, 2:53 AM)29.99 "Hg (Sep 20, 2:53 AM)
Low62 °F (Oct 4, 5:53 AM)50% (Sep 20, 2:53 PM)29.54 "Hg (Oct 3, 5:53 AM)
Average78 °F84%29.84 "Hg
* Reported Sep 19 7:00 AM — Oct 4 6:53 AM, Daytona Beach, Weather by CustomWeather, © 2015

Note: Actual official high and low records may vary slightly from our data, if they occured in-between our weather recording intervals... More about our weather records


Daytona Beach weather history for previous 24 hours

Time TempWeatherWind HumidityBarometerVisibility
6:53 AM
Sun, Oct 4
62 °FPassing clouds.No wind96%29.67 "Hg10 mi
5:53 AM62 °FPassing clouds.No wind96%29.67 "Hg10 mi
4:53 AM63 °FPassing clouds.5 mph93%29.66 "Hg10 mi
3:53 AM63 °FClear.6 mph93%29.66 "Hg10 mi
2:53 AM64 °FClear.5 mph94%29.66 "Hg10 mi
1:53 AM65 °FClear.No wind91%29.65 "Hg10 mi
12:53 AM66 °FPassing clouds.3 mph87%29.66 "Hg10 mi
11:53 PM
Sat, Oct 3
66 °FPassing clouds.6 mph90%29.65 "Hg10 mi
10:53 PM68 °FPassing clouds.5 mph84%29.65 "Hg10 mi
9:53 PM68 °FClear.7 mph84%29.64 "Hg10 mi
8:53 PM71 °FPassing clouds.10 mph76%29.63 "Hg10 mi
7:53 PM73 °FPartly sunny.8 mph76%29.61 "Hg10 mi
6:53 PM73 °FScattered clouds.7 mph76%29.59 "Hg10 mi
4:53 PM79 °FScattered clouds.12 mph67%29.56 "Hg10 mi
3:53 PM78 °FScattered clouds.10 mph71%29.56 "Hg10 mi
2:53 PM79 °FPartly sunny.13 mph67%29.55 "Hg10 mi
1:53 PM77 °FPartly sunny.9 mph71%29.57 "Hg10 mi
12:53 PM75 °FPartly sunny.5 mph76%29.58 "Hg10 mi
11:53 AM72 °FPartly sunny.8 mph84%29.58 "Hg10 mi
10:53 AM71 °FOvercast.8 mph84%29.59 "Hg10 mi
9:53 AM71 °FPartly sunny.6 mph84%29.59 "Hg10 mi
8:53 AM69 °FLow clouds.7 mph87%29.57 "Hg10 mi
Weather by CustomWeather, © 2015

See weather overviewHow to use our weather pages